Regional Weather Roundup
Issued by NWS

Home | Current Version | Previous Version | Text Only | Print | Product List | Glossary Off
Versions: 1 2 3 4 5 6 7 8 9 10 11 12 13 14 15 16 17 18 19 20 21 22 23 24 25 26 27 28 29 30 31 32 33 34 35 36 37 38 39 40 41 42 43 44 45 46 47 48 49 50

384
ASUS44 KJAN 182310
RWRMS

MISSISSIPPI HOURLY WEATHER ROUNDUP
NATIONAL WEATHER SERVICE JACKSON MS
500 PM CST THU DEC 18 2014

NOTE: "FAIR: INDICATES FEW OR NO CLOUDS BELOW 12,000 FEET WITH NO
SIGNIFICANT WEATHER AND/OR OBSTRUCTIONS TO VISIBILITY.

MSZ001>002-007>008-010>013-018>021-025>028-034>036-190000-
NORTHWEST MISSISSIPPI

CITY           SKY/WX    TMP DP  RH WIND       PRES   REMARKS
CLARKSDALE     CLOUDY    46  43  87 N5        30.19R
CLEVELAND      CLOUDY    48  45  88 CALM      30.17R
GREENWOOD      CLOUDY    51  43  74 NE5       30.17R
GREENVILLE     CLOUDY    50  44  80 NE3       30.17R
GRENADA        FAIR      45  39  81 CALM      30.17S
OLIVE BRANCH   CLOUDY    43  39  87 CALM      30.19R
OXFORD         CLOUDY    45  37  76 NE7       30.19R
TUNICA         CLOUDY    45  39  81 N6        30.19S
$$

MSZ003>006-009-014>017-022>024-029>033-037>039-190000-
NORTHEAST MISSISSIPPI

CITY           SKY/WX    TMP DP  RH WIND       PRES   REMARKS
COLUMBUS AFB   CLOUDY    49  34  57 N2        30.17S
CORINTH        CLOUDY    46  36  66 CALM      30.18R
GOLDN TRIANGLE CLOUDY    50  30  46 CALM      30.16S
STARKVILLE     CLOUDY    46  37  71 CALM      30.16S
TUPELO         CLOUDY    47  36  65 CALM      30.18S
$$

MSZ040-058-190000-
CENTRAL MISSISSIPPI

CITY           SKY/WX    TMP DP  RH WIND       PRES   REMARKS
JACKSON INTL   CLOUDY    50  45  83 SE5       30.15S
JACKSON HAWKNS CLOUDY    50  44  80 E5        30.14S
MERIDIAN KEY   CLOUDY    51  41  68 CALM      30.16F
MERIDIAN NAS   CLOUDY    50  37  61 CALM      30.18R
RAYMOND        CLOUDY    50  46  87 CALM      30.16R
VICKSBURG      CLOUDY    53  45  74 SE6       30.15R
$$

MSZ059>079-190000-
SOUTH MISSISSIPPI

CITY           SKY/WX    TMP DP  RH WIND       PRES   REMARKS
HATTIESBURG    CLOUDY    50  49  96 E5        30.15F
MCCOMB         CLOUDY    50  48  93 NE5       30.12S
NATCHEZ        CLOUDY    50  46  87 NE5       30.14S
PINE BELT      CLOUDY    48  45  87 NE5       30.14F
$$

MSZ080>082-190000-
COASTAL MISSISSIPPI

CITY           SKY/WX    TMP DP  RH WIND       PRES   REMARKS
BAY ST LOUIS   MOCLDY    57  46  67 VRB5      30.12S
BILOXI         MOCLDY    58  49  72 E3        30.12S
PASCAGOULA     MOCLDY    58  48  69 SE5       30.12S
GULFPORT       CLOUDY    58  49  72 E5        30.12R
$$



USA.gov is the U.S. government's official web portal to all federal, state and local government web resources and services.